Location: Caltech
(34.1382°N, 118.1253°W)
Time: 13:53:08
(UTC-07:00)

Iridium 14 - Visible Passes

Search period start: 21 July 2017 00:00
Search period end: 31 July 2017 00:00
Orbit: 776 x 779 km, 86.4° (Epoch: 21 July)

Date Brightness Start Highest point End Pass type
(mag) Time Alt. Az. Time Alt. Az. Time Alt. Az.
24 Jul 9.1 05:03:26 10° NE 05:06:01 14° ENE 05:08:35 10° ESE visible
27 Jul 8.8 05:02:27 10° NNE 05:06:18 20° E 05:10:07 10° SE visible
28 Jul 9.5 04:32:00 10° ENE 04:32:27 10° ENE 04:32:54 10° E visible
30 Jul 8.1 05:01:57 10° NNE 05:06:32 30° E 05:11:04 10° SE visible
